Weather History for Phnom Penh, Cambodia

Change the Weather History Date:

Tuesday, February 19, 2013

  Actual Average Record
Temperature  
Mean Temperature 84 °F -  
Max Temperature 96 °F 89 °F 96 °F (2013)
Min Temperature 73 °F 75 °F 72 °F (2014)
Cooling Degree Days 20    
Growing Degree Days 34 (Base 50)    
Moisture  
Dew Point 62 °F    
Average Humidity 45    
Maximum Humidity 77    
Minimum Humidity 25    
Precipitation  
Precipitation 0.00 in - - ()
Sea Level Pressure  
Sea Level Pressure 29.76 in    
Wind  
Wind Speed 6 mph ()    
Max Wind Speed 14 mph    
Max Gust Speed -    
Visibility 5.9 miles    
Events      
Averages and records for this station are not official NWS values.
T = Trace of Precipitation, MM = Missing Value Source: Averaged Metar Reports

Daily Weather History Graph

Daily Weather History Graph

Search for Another Location

Airport:

Trip Planner

Search our weather history database for the weather conditions in past years. The results will help you decide how hot, cold, wet, or windy it might be!

Date:

Astronomy

Feb. 19, 2013 Rise Set
Actual Time 6:20 AM ICT 6:08 PM ICT
Civil Twilight 5:58 AM ICT 6:30 PM ICT
Nautical Twilight 5:34 AM ICT 6:55 PM ICT
Astronomical Twilight 5:09 AM ICT 7:19 PM ICT
Moon 12:44 PM ICT (2/19) 12:55 AM ICT (2/19)
Length of Visible Light 12h 31m
Length of Day
11h 48m
Waxing Gibbous, 63% of the Moon is Illuminated
Feb 19
Waxing Gibbous
Feb 26
Full
Mar 5
Last Quarter
Mar 12
New
Mar 20
First Quarter

Hourly Weather History & Observations

Time (ICT) Temp. Heat Index Dew Point Humidity Pressure Visibility Wind Dir Wind Speed Gust Speed Precip Events Conditions
12:00 AM 80.6 °F 82.3 °F 64.4 °F 58% 29.77 in 5.6 mi SSW 9.2 mph - N/A   Unknown
12:30 AM 80.6 °F 82.7 °F 66.2 °F 61% 29.77 in 5.6 mi SSW 10.4 mph - N/A   Unknown
1:00 AM 80.6 °F 82.7 °F 66.2 °F 61% 29.77 in 5.6 mi SSW 9.2 mph - N/A   Unknown
6:30 AM 75.2 °F - 66.2 °F 73% 29.80 in 6.2 mi SSW 3.5 mph - N/A   Partly Cloudy
7:00 AM 74 °F - 68 °F 77% 29.84 in 6 mi Calm Calm - -   Partly Cloudy
7:00 AM 77.0 °F - 66.2 °F 69% 29.80 in 5.6 mi SW 4.6 mph - N/A   Unknown
7:30 AM 80.6 °F 82.3 °F 64.4 °F 58% 29.80 in 5.6 mi SW 5.8 mph - N/A   Unknown
8:00 AM 82.4 °F 83.4 °F 62.6 °F 51% 29.80 in - SW 5.8 mph - N/A   Clear
8:30 AM 84.2 °F 85.6 °F 64.4 °F 51% 29.83 in - South 6.9 mph - N/A   Clear
9:00 AM 86.0 °F 86.6 °F 62.6 °F 45% 29.83 in - SW 4.6 mph - N/A   Clear
9:30 AM 86.0 °F 87.3 °F 64.4 °F 48% 29.83 in - SW 8.1 mph - N/A   Clear
10:00 AM 87.8 °F 89.4 °F 64.4 °F 46% 29.83 in - SSE 8.1 mph - N/A   Clear
10:30 AM 87.8 °F 89.4 °F 64.4 °F 46% 29.83 in - South 4.6 mph - N/A   Clear
11:00 AM 89.6 °F 90.1 °F 62.6 °F 40% 29.83 in - SE 5.8 mph - N/A   Clear
11:30 AM 89.6 °F 90.1 °F 62.6 °F 40% 29.80 in - SE 5.8 mph - N/A   Clear
12:00 PM 91.4 °F 92.1 °F 62.6 °F 38% 29.80 in 6.2 mi South 3.5 mph - N/A   Partly Cloudy
12:30 PM 91.4 °F 92.1 °F 62.6 °F 38% 29.77 in 6.2 mi SSE 6.9 mph - N/A   Partly Cloudy
1:00 PM 93.2 °F 93.3 °F 60.8 °F 34% 29.77 in 6.2 mi WSW 5.8 mph - N/A   Partly Cloudy
1:30 PM 93.2 °F 92.6 °F 59.0 °F 32% 29.74 in 6.2 mi West 2.3 mph - N/A   Partly Cloudy
2:00 PM 95.0 °F 94.4 °F 59.0 °F 30% 29.71 in 6.2 mi NNW 4.6 mph - N/A   Partly Cloudy
2:30 PM 96.8 °F 96.2 °F 59.0 °F 28% 29.71 in 6.2 mi NNE 5.8 mph - N/A   Partly Cloudy
3:00 PM 95.0 °F 94.4 °F 59.0 °F 30% 29.68 in 6.2 mi NNW 10.4 mph - N/A   Partly Cloudy
3:30 PM 95.0 °F 92.7 °F 53.6 °F 25% 29.68 in 6.2 mi NNE 13.8 mph - N/A   Partly Cloudy
4:00 PM 95.0 °F 92.7 °F 53.6 °F 25% 29.68 in 6.2 mi NNW 6.9 mph - N/A   Partly Cloudy
4:30 PM 95.0 °F 92.7 °F 53.6 °F 25% 29.68 in 6.2 mi ENE 8.1 mph - N/A   Partly Cloudy
5:00 PM 95.0 °F 92.7 °F 53.6 °F 25% 29.68 in 6.2 mi SSE 2.3 mph - N/A   Partly Cloudy
5:30 PM 95.0 °F 92.7 °F 53.6 °F 25% 29.68 in - NNE 4.6 mph - N/A   Clear
6:00 PM 93.2 °F 90.8 °F 53.6 °F 26% 29.68 in - NNW 3.5 mph - N/A   Clear
6:30 PM 91.4 °F 89.4 °F 55.4 °F 29% 29.71 in 6.2 mi WNW 3.5 mph - N/A   Partly Cloudy
7:30 PM 91.4 °F 89.9 °F 57.2 °F 31% 29.71 in 5.6 mi WNW 3.5 mph - N/A   Partly Cloudy
8:00 PM 89.6 °F 88.9 °F 59.0 °F 36% 29.71 in 5.6 mi Calm Calm - N/A   Partly Cloudy
8:30 PM 87.8 °F 87.6 °F 60.8 °F 40% 29.74 in 5.6 mi South 6.9 mph - N/A   Partly Cloudy
9:00 PM 86.0 °F 86.6 °F 62.6 °F 45% 29.74 in 5.6 mi South 8.1 mph - N/A   Partly Cloudy
9:30 PM 86.0 °F 88.2 °F 66.2 °F 51% 29.77 in 5.6 mi South 8.1 mph - N/A   Partly Cloudy
10:00 PM 84.2 °F 87.3 °F 68.0 °F 58% 29.77 in 5.6 mi South 8.1 mph - N/A   Partly Cloudy
10:30 PM 82.4 °F 86.3 °F 69.8 °F 66% 29.77 in 5.6 mi SSW 6.9 mph - N/A   Partly Cloudy
11:00 PM 82.4 °F 86.3 °F 69.8 °F 66% 29.80 in 5.6 mi South 9.2 mph - N/A   Partly Cloudy
11:30 PM 80.6 °F 83.9 °F 69.8 °F 70% 29.80 in 5.6 mi South 9.2 mph - N/A   Partly Cloudy